This demonstration page uses our WeatherBlox Daily Observations layout. Learn more.

Left ArrowRight Arrow

41.86663, -103.66717

Hourly Observations for July 20, 2020

Temp ( °F °C ) Dew Point ( °F °C ) Humidity (%) Winds ( mph kmh ) Pressure ( in mb ) Visibility ( mi km ) Precip ( " mm )
12:53 am 00:53 Clear 64 17.8 55 12.8 73 73 SSE 12 19 29.88 1012 10 16.0934 0 0
1:53 am 01:53 Clear 65 18.3 54 12.2 68 68 SSE 9 15 29.88 1012 10 16.0934 0 0
2:53 am 02:53 Clear 64 17.8 54 12.2 70 70 ESE 5 7 29.87 1012 10 16.0934 0 0
3:53 am 03:53 Clear 60 15.6 54 12.2 80 80 NW 7 11 29.88 1012 10 16.0934 0 0
4:53 am 04:53 Clear 60 15.6 55 12.8 84 84 NNE 7 11 29.88 1012 10 16.0934 0 0
5:53 am 05:53 Sunny 59 15 55 12.8 87 87 NE 8 13 29.9 1013 10 16.0934 0 0
6:53 am 06:53 Sunny 65 18.3 58 14.4 78 78 undefined N/A 29.93 1014 10 16.0934 0 0
7:53 am 07:53 Sunny 69 20.6 58 14.4 68 68 ENE 14 22 29.94 1014 10 16.0934 0 0
8:53 am 08:53 Sunny 73 22.8 58 14.4 59 59 E 8 13 29.93 1014 10 16.0934 0 0
9:53 am 09:53 Sunny 76 24.4 58 14.4 54 54 E 8 13 29.92 1013 10 16.0934 0 0
10:53 am 10:53 Sunny 77 25 58 14.4 52 52 ESE 8 13 29.92 1013 10 16.0934 0 0
11:53 am 11:53 Sunny 80 26.7 59 15 49 49 undefined N/A 29.91 1013 10 16.0934 0 0
12:53 pm 12:53 Sunny 82 27.8 60 15.6 47 47 VRB 6 9 29.89 1012 10 16.0934 0 0
1:53 pm 13:53 Sunny 84 28.9 60 15.6 44 44 Calm 29.87 1012 10 16.0934 0 0
2:53 pm 14:53 Sunny 84 28.9 60 15.6 44 44 E 9 15 29.86 1011 10 16.0934 0 0
3:53 pm 15:53 Sunny 87 30.6 60 15.6 40 40 E 8 13 29.84 1011 10 16.0934 0 0
4:53 pm 16:53 Sunny 87 30.6 60 15.6 40 40 SE 5 7 29.82 1010 10 16.0934 0 0
5:53 pm 17:53 Sunny 87 30.6 60 15.6 40 40 VRB 3 6 29.81 1010 10 16.0934 0 0
6:53 pm 18:53 Sunny 86 30 60 15.6 42 42 Calm 29.81 1010 10 16.0934 0 0
7:53 pm 19:53 Sunny 82 27.8 63 17.2 53 53 N 6 9 29.82 1010 10 16.0934 0 0
8:53 pm 20:53 Clear 73 22.8 57 13.9 57 57 NE 17 28 29.88 1012 10 16.0934 0 0
9:53 pm 21:53 Mostly Cloudy 69 20.6 59 15 70 70 ENE 13 20 29.92 1013 10 16.0934 0 0
10:53 pm 22:53 Mostly Clear 66 18.9 60 15.6 81 81 NE 5 7 29.94 1014 10 16.0934 0 0
11:53 pm 23:53 Clear 64 17.8 58 14.4 81 81 N 7 11 29.95 1014 10 16.0934 0 0

Powered by AerisWeather